Lapse_Rate
5.6 5.7 5.7 5.9 6.1 6.2 6.3 6.3 6.4 6.5 6.6 6.6 6.7 6.8 6.8 6.8 6.7 6.6 6.4 6.4 6.7 6.7 6.6 6.6 6.5 6.4 6.2 6.1 6.1 6.1 6.3 6.3 6.3 6.4 6.5 6.6 7.2 8.7 9.0 9.0 8.2 8.7 8.1 8.1 8.0 7.8 7.8
5.8 5.8 5.9 5.9 6.1 6.2 6.3 6.4 6.5 6.5 6.6 6.8 6.8 6.8 6.9 6.9 6.8 6.7 6.5 6.4 6.7 6.7 6.7 6.7 6.6 6.5 6.2 6.3 6.2 6.4 6.4 6.4 6.4 6.6 6.4 6.9 7.2 7.4 8.2 8.8 8.1 8.1 8.2 8.2 8.3 8.3 8.4
5.8 5.9 6.0 6.1 6.2 6.3 6.4 6.4 6.5 6.6 6.6 6.8 6.9 6.9 7.0 7.0 6.9 6.7 6.5 6.5 6.5 6.7 6.8 6.7 6.6 6.5 6.5 6.3 6.3 6.2 6.4 6.5 6.6 6.6 6.7 7.1 7.3 7.4 7.6 8.8 8.5 8.4 8.5 8.5 8.9 8.6 8.6
6.0 6.0 6.0 6.1 6.2 6.4 6.5 6.6 6.6 6.7 6.7 6.8 6.9 6.9 7.0 7.0 6.9 6.8 6.7 6.5 6.5 6.7 6.8 6.8 6.7 6.6 6.8 6.4 6.1 6.5 6.3 6.5 6.5 6.6 6.8 7.0 7.1 7.4 7.4 8.4 8.6 8.7 8.6 7.9 8.9 8.8 8.6
6.0 6.0 6.1 6.1 6.2 6.3 6.4 6.5 6.6 6.7 6.7 6.7 6.8 6.9 6.9 7.0 6.9 6.8 6.7 6.5 6.4 6.7 6.8 6.8 6.5 6.5 6.5 6.6 6.6 6.7 6.4 6.6 6.7 6.9 6.9 6.9 7.0 7.4 7.6 8.8 8.9 8.5 8.1 8.7 9.5 9.0 8.7
6.1 6.0 6.1 6.2 6.3 6.3 6.4 6.5 6.5 6.6 6.7 6.7 6.7 6.8 6.9 7.0 7.0 6.8 6.7 6.5 6.4 6.6 6.7 6.5 6.4 6.6 6.8 7.0 6.9 6.6 6.5 6.7 6.9 6.9 7.0 7.0 7.3 7.5 8.3 9.2 8.4 8.4 8.0 9.0 9.7 9.5 8.8
6.1 6.1 6.2 6.3 6.3 6.4 6.5 6.5 6.5 6.5 6.6 6.7 6.7 6.7 6.8 7.0 6.9 6.8 6.7 6.5 6.3 6.5 6.5 6.7 6.4 6.6 6.7 6.7 6.6 6.6 6.6 6.7 7.0 7.1 7.3 7.5 7.7 8.0 9.3 9.1 8.6 8.8 8.6 9.6 9.7 9.5 9.2
6.2 6.2 6.2 6.3 6.3 6.4 6.5 6.6 6.5 6.5 6.6 6.6 6.7 6.7 6.8 7.0 6.9 6.8 6.7 6.5 5.8 5.8 6.3 6.6 6.5 6.5 6.7 6.9 6.8 6.7 6.7 6.8 7.0 7.3 7.5 8.0 8.3 9.1 9.2 9.0 9.1 9.5 9.6 9.6 9.6 9.7 9.4
6.2 6.2 6.2 6.3 6.3 6.4 6.4 6.6 6.7 6.6 6.6 6.6 6.8 6.7 6.8 7.0 7.0 6.9 6.6 6.6 6.5 5.9 6.1 6.8 7.1 6.5 6.7 6.7 6.8 6.8 6.8 6.9 7.2 7.5 7.9 8.8 9.6 9.2 9.3 9.0 9.0 9.0 9.6 9.6 9.6 9.6 9.0
6.3 6.3 6.3 6.3 6.4 6.4 6.3 6.5 6.7 6.7 6.7 6.7 6.8 6.9 6.9 7.0 7.0 6.9 6.7 6.6 7.0 6.6 6.3 7.1 6.7 6.7 6.8 6.8 7.0 7.1 6.9 7.1 7.5 7.8 8.0 9.4 9.6 9.0 8.8 8.9 9.3 9.4 9.5 9.2 9.0 9.7 9.2
6.2 6.2 6.2 6.2 6.3 6.4 6.4 6.5 6.7 6.7 6.8 6.8 6.9 7.0 7.0 7.1 7.1 7.1 6.4 6.8 6.7 6.4 7.8 7.4 7.1 7.2 7.0 7.2 7.5 7.2 7.1 7.2 7.5 7.9 8.2 9.0 9.0 8.8 8.7 8.7 9.6 9.6 9.6 8.9 8.8 9.4 9.4
6.2 6.0 6.0 6.1 6.1 6.3 6.4 6.4 6.6 6.7 6.7 6.8 7.0 7.0 7.0 7.1 7.0 7.3 7.0 6.6 6.8 6.6 8.4 7.8 7.5 7.2 7.3 7.3 7.7 7.6 7.3 7.1 7.5 7.7 8.2 8.4 8.8 8.6 8.4 8.7 9.6 8.8 8.6 8.7 8.9 9.6 9.3
6.1 6.1 6.0 6.1 6.1 6.1 6.2 6.3 6.6 6.7 6.7 6.8 6.9 7.0 7.0 7.1 7.2 7.0 7.0 6.8 6.9 7.8 8.7 8.2 7.8 7.6 7.6 7.7 7.9 7.7 7.5 7.3 7.5 7.9 8.1 8.5 8.3 8.4 8.3 9.0 8.8 8.6 8.9 9.6 9.6 9.4 9.4
6.1 6.1 6.1 6.1 6.1 6.1 6.2 6.3 6.5 6.7 6.7 6.8 7.0 7.0 7.0 7.0 7.2 7.3 7.1 6.3 7.6 8.8 9.4 8.9 8.1 8.0 8.1 8.2 8.2 7.8 7.6 7.7 7.7 8.1 9.6 9.0 8.8 8.6 8.5 8.3 9.3 9.5 9.6 9.8 8.9 7.2 9.5
6.1 6.2 6.2 6.1 6.1 6.1 6.1 6.4 6.6 6.8 6.8 7.0 7.1 7.0 7.1 7.0 7.0 7.2 6.7 7.0 8.3 7.9 9.6 9.3 8.6 8.4 8.8 8.9 8.4 8.0 7.9 8.0 8.2 8.1 9.3 9.7 9.5 9.5 9.0 8.8 8.7 9.4 9.3 9.7 9.9 8.8 9.7
5.9 5.8 5.8 6.0 6.1 6.2 6.1 6.4 6.5 6.7 6.8 7.0 7.1 7.2 7.0 7.0 6.9 7.0 6.5 7.5 8.5 8.6 9.6 9.6 9.5 9.0 9.6 9.4 9.3 8.5 8.5 8.6 9.0 8.7 9.4 9.4 9.2 9.7 9.5 9.0 9.2 9.5 9.4 9.5 9.7 7.9 8.6
5.8 5.6 5.6 5.6 6.0 6.1 6.2 6.3 6.6 6.6 6.9 7.0 7.0 6.7 6.6 6.9 7.0 6.9 7.1 8.0 8.9 9.2 8.8 9.3 9.7 9.7 9.7 9.7 9.4 9.4 9.4 9.6 9.7 9.4 8.9 9.3 9.5 9.5 9.6 9.0 9.5 9.4 9.1 9.4 9.7 8.8 8.6
5.7 5.5 5.5 5.5 5.9 6.1 6.2 6.3 6.6 6.7 7.0 7.1 7.2 6.7 7.1 6.9 6.9 7.0 7.7 8.5 9.0 9.3 8.7 8.9 9.6 9.6 9.7 9.7 9.6 9.6 9.0 9.6 8.9 9.2 8.9 8.9 9.6 9.5 9.6 9.7 9.5 9.7 9.6 9.6 9.6 9.4 8.5
5.6 5.5 5.5 5.9 6.1 6.2 6.3 6.3 6.6 6.8 7.1 7.3 7.2 7.0 7.2 7.2 7.3 8.2 8.5 8.8 9.2 9.2 9.1 9.0 9.2 9.6 9.7 9.8 9.7 9.6 9.1 8.7 8.7 8.8 8.8 9.0 9.3 9.6 9.6 8.9 9.3 9.6 9.6 9.3 9.6 9.7 9.0
5.6 5.7 5.7 5.9 6.2 6.3 6.5 6.5 6.5 6.8 7.1 7.3 7.5 7.9 7.5 7.6 7.4 7.3 9.0 9.1 9.4 8.9 8.9 9.4 9.2 9.5 9.4 8.6 9.4 9.6 8.9 8.3 8.7 8.6 8.6 8.9 9.0 9.4 9.5 8.3 8.2 8.6 9.1 9.7 9.6 9.6 9.6
5.9 5.8 5.8 6.0 6.0 6.2 6.4 6.5 6.5 6.7 7.1 7.1 7.1 7.5 7.7 8.2 8.2 8.3 8.9 9.1 9.4 9.2 8.9 8.9 8.9 9.1 9.3 9.3 9.1 8.4 9.4 8.5 8.4 8.6 8.5 8.5 8.7 8.8 9.1 8.0 8.2 8.2 8.5 8.8 9.6 9.7 9.4
6.1 6.0 5.8 5.9 6.1 6.2 6.3 6.5 6.6 6.7 6.9 6.8 6.8 6.9 7.6 7.6 9.0 8.8 9.0 8.7 9.0 9.2 9.2 9.1 9.0 9.3 8.8 9.0 8.5 8.5 8.6 8.7 9.1 8.4 8.4 8.6 8.6 8.5 8.4 9.1 9.2 9.2 9.5 9.5 9.1 9.6 9.1
6.1 6.0 5.7 5.8 6.0 6.0 6.1 6.4 6.6 6.8 6.8 7.0 7.2 7.1 7.4 7.4 8.1 8.6 8.7 8.8 9.0 9.0 8.2 8.9 8.7 9.1 8.5 8.1 7.7 8.0 8.3 8.3 8.6 8.6 8.3 8.2 8.5 8.5 8.4 8.6 9.4 9.3 9.4 9.5 9.2 9.6 8.4
6.0 6.0 5.7 5.6 5.7 5.9 5.9 6.1 6.3 6.5 6.6 6.8 7.0 7.2 7.0 7.2 8.1 8.1 8.9 8.7 9.0 8.4 7.5 9.0 8.4 8.5 7.8 7.8 8.2 8.4 8.3 8.8 8.7 8.4 8.2 8.2 8.1 8.1 8.1 8.4 9.0 8.5 8.4 8.2 8.4 8.2 7.8
5.8 5.8 5.7 5.5 5.4 5.5 5.6 5.7 5.9 6.1 6.3 6.5 6.8 7.0 7.2 7.4 7.2 7.6 8.1 8.2 8.2 7.8 7.9 8.3 8.0 8.0 8.1 8.5 8.4 8.7 8.8 8.8 8.5 8.2 7.9 8.2 8.2 8.2 8.3 8.6 9.2 8.3 7.7 7.7 7.7 7.8 7.5
5.7 5.6 5.6 5.5 5.4 5.3 5.3 5.4 5.6 5.8 6.0 6.3 6.7 6.8 7.1 7.3 6.9 7.0 7.3 7.5 7.7 8.2 8.3 8.1 7.6 7.7 7.7 8.0 8.4 8.4 8.6 8.7 9.5 8.3 7.6 8.1 8.1 7.9 8.3 8.9 9.5 7.7 7.0 7.2 7.2 7.6 6.5
5.5 5.5 5.4 5.4 5.4 5.4 5.3 5.2 5.3 5.5 5.8 6.0 6.4 6.8 6.9 7.3 6.2 7.1 6.9 6.8 6.7 7.4 8.2 8.2 7.5 7.2 7.6 8.0 8.3 8.7 9.1 9.3 9.3 9.3 8.2 7.9 7.8 8.0 8.3 8.5 8.0 6.8 6.5 6.9 7.3 6.0 5.4
5.4 5.3 5.4 5.4 5.4 5.3 5.2 5.2 5.3 5.4 5.6 5.8 6.2 6.4 6.7 6.8 6.6 6.9 7.0 7.0 6.8 7.3 7.8 7.4 7.1 7.6 7.7 7.8 8.2 8.6 9.1 9.3 8.9 8.8 8.1 7.9 8.0 8.2 8.5 9.2 7.9 6.1 5.9 6.3 5.7 5.5 5.1
5.3 5.2 5.3 5.4 5.4 5.3 5.2 5.1 5.3 5.5 5.6 5.7 6.0 6.3 6.4 6.4 6.4 7.0 6.9 7.0 7.2 7.4 7.5 7.0 7.4 7.5 7.3 7.8 8.1 8.3 9.2 8.9 8.2 8.4 7.6 7.7 7.6 7.0 7.0 5.9 5.7 6.0 5.6 5.5 5.5 5.2 5.2
Wind_Speed
20 20 20 19 20 19 19 18 17 16 15 15 14 12 11 10 10 9 9 9 10 10 11 12 12 13 8 8 12 11 10 7 9 11 13 15 13 13 7 4 7 6 7 7 2 4 3
21 22 21 20 20 20 20 19 18 17 16 15 14 12 12 10 10 9 10 9 10 10 11 12 12 12 6 14 9 15 13 10 12 13 13 14 11 11 7 3 3 9 7 12 1 3 6
23 23 22 22 21 21 20 20 19 19 18 17 15 13 12 11 10 10 10 10 10 11 12 12 10 6 11 15 2 8 8 11 13 13 14 11 8 10 13 6 5 10 12 15 12 1 6
24 24 23 23 23 23 22 21 20 21 20 18 16 13 12 11 10 10 10 10 11 12 13 12 9 8 7 17 16 8 10 12 13 12 14 8 5 13 13 10 8 15 5 2 20 4 4
25 25 25 25 24 24 24 22 22 22 21 18 16 14 12 10 10 10 10 11 12 13 13 11 6 9 12 8 13 12 12 12 11 11 9 5 9 13 18 15 8 2 7 16 6 5 4
26 26 26 26 26 25 24 24 23 23 22 20 16 15 12 10 8 9 9 10 3 9 8 9 11 8 14 15 15 17 15 14 12 12 11 11 12 13 15 11 1 11 14 20 4 5 7
25 26 27 27 27 26 26 25 25 24 23 20 18 15 11 8 7 7 5 4 5 6 14 13 16 15 8 15 16 18 15 13 12 12 13 15 12 15 17 9 10 19 20 9 1 2 4
26 26 27 27 27 28 27 27 26 25 24 21 18 15 10 7 6 4 6 6 7 7 6 25 20 19 6 8 16 15 16 14 14 13 14 14 13 17 9 16 6 13 10 9 4 3 6
26 26 27 27 28 28 28 28 27 26 24 21 18 14 8 5 2 4 12 13 11 9 8 16 20 14 12 10 14 18 18 18 15 15 16 15 15 12 4 6 10 13 12 7 6 7 16
26 27 27 27 29 29 29 29 29 27 26 22 17 13 8 2 2 10 13 16 16 11 6 17 17 13 15 12 15 18 18 16 11 13 14 11 15 4 9 12 14 9 11 3 7 11 5
27 27 28 28 29 30 30 30 30 29 29 26 21 16 10 17 10 12 5 16 11 8 6 19 19 11 14 17 15 17 18 18 15 11 12 13 13 11 9 13 15 10 6 8 10 12 7
27 28 29 29 30 31 31 31 31 32 30 29 24 9 9 5 6 14 6 4 4 6 7 14 12 15 17 18 10 20 19 18 11 13 12 17 6 11 12 14 12 8 12 14 14 14 4
27 28 29 30 31 32 33 32 32 33 32 29 23 7 11 7 3 12 7 7 6 9 16 18 17 18 19 14 13 18 18 18 15 12 13 14 13 8 8 10 8 10 12 8 7 5 7
27 28 28 31 32 33 34 33 33 33 33 28 19 6 15 9 13 7 7 8 9 14 14 17 16 18 17 17 17 15 17 16 18 19 10 12 13 17 15 14 14 14 16 10 6 4 8
28 28 29 31 32 33 34 34 34 35 34 29 9 5 6 9 17 10 9 11 8 13 10 14 18 17 18 14 8 14 15 16 17 18 18 10 3 19 17 14 14 15 8 15 8 18 10
29 28 29 30 32 34 34 34 34 37 37 31 4 8 11 13 14 9 9 17 18 14 10 11 12 16 15 15 14 15 16 20 19 17 14 0 6 12 9 7 11 14 12 10 5 4 7
29 29 29 30 32 32 34 34 35 38 41 25 5 6 11 10 10 7 11 19 20 0 6 9 13 13 14 14 12 16 17 10 6 13 5 12 2 8 14 10 13 10 10 10 11 12 5
29 29 29 30 31 33 33 34 35 34 42 3 6 7 11 10 8 9 13 22 6 7 7 11 12 11 15 17 14 13 9 6 6 6 10 12 9 7 14 13 15 8 12 11 5 6 7
29 28 29 30 31 32 33 36 35 30 23 7 4 3 7 9 9 12 17 24 0 14 7 12 10 15 9 3 14 8 14 9 8 5 6 12 6 9 13 11 17 5 10 10 12 12 10
28 28 30 31 31 32 33 35 37 34 23 4 5 2 5 8 12 16 17 15 10 9 14 7 8 12 11 17 12 7 13 3 5 9 7 4 13 15 13 9 9 20 23 13 9 8 9
27 28 29 30 31 32 33 35 39 43 40 3 4 3 15 8 11 16 17 14 16 9 11 7 6 9 10 6 13 20 6 14 5 6 2 4 11 14 2 7 10 16 20 23 11 8 6
27 27 28 30 31 31 32 33 36 44 53 4 7 5 10 13 4 10 8 12 12 10 7 9 13 12 10 5 5 8 7 10 4 10 3 6 11 12 15 16 16 20 18 12 10 6 9
27 27 28 29 30 30 30 31 33 34 32 5 9 8 7 9 11 8 10 9 14 3 15 6 14 5 13 6 7 2 9 7 8 5 7 9 10 10 14 14 13 14 9 6 5 2 3
27 27 28 29 28 29 28 28 29 28 22 7 9 8 6 10 10 7 11 5 1 11 8 4 0 3 3 4 4 9 8 10 4 8 10 11 10 7 11 13 13 10 8 8 6 9 8
27 28 28 27 27 27 27 26 27 27 27 10 8 6 6 8 12 9 9 4 6 4 7 7 9 5 2 3 4 8 8 11 11 10 6 11 9 8 10 11 8 10 10 8 3 14 13
27 27 27 27 27 26 26 25 26 27 26 11 8 5 5 6 8 12 13 10 8 8 12 5 5 5 7 6 7 9 11 13 5 7 3 12 7 7 10 9 11 11 9 7 3 5 11
27 27 27 26 26 26 25 25 25 26 26 12 7 8 6 7 3 10 8 8 11 10 7 2 7 5 8 7 9 11 12 10 12 4 4 4 6 8 10 9 7 10 7 4 5 5 5
26 26 27 27 25 25 25 24 23 24 23 10 8 4 5 6 11 9 11 9 10 6 9 5 2 5 6 6 9 10 9 7 5 8 5 4 6 7 9 12 5 7 2 3 5 4 8
25 25 26 26 25 24 24 24 22 22 20 16 5 10 7 5 8 15 14 13 9 8 7 8 7 7 6 4 3 6 7 2 1 7 5 3 3 4 6 6 8 7 9 5 6 4 7
Wind_Direction
15 10 9 6 2 2 360 356 353 349 343 338 333 325 317 314 307 298 292 290 295 300 299 300 306 316 294 222 250 139 167 170 191 218 238 259 270 273 4 329 344 277 350 310 7 325 276
15 10 7 5 3 1 357 354 352 349 344 338 332 325 318 311 304 294 288 284 293 295 294 296 303 311 245 248 199 143 192 173 220 216 240 258 274 352 257 310 185 270 297 277 191 287 295
12 9 5 3 1 359 356 354 351 350 345 339 331 325 317 309 300 291 284 283 287 288 287 290 298 283 258 237 146 153 200 202 214 217 243 238 303 296 271 293 247 276 275 15 289 308 275
9 7 4 1 360 358 357 355 350 348 344 338 332 326 318 306 296 287 280 280 280 280 278 282 287 264 258 226 239 201 216 211 206 221 256 345 287 273 288 259 263 244 32 203 270 240 153
7 4 2 0 359 357 358 355 349 347 341 338 332 326 317 305 291 282 277 276 274 272 268 268 249 216 240 145 211 231 227 208 203 224 231 312 268 271 265 244 270 38 314 279 234 184 315
5 2 0 358 357 355 354 353 349 346 342 338 331 324 314 305 287 277 275 276 293 274 229 229 258 245 250 217 204 217 212 228 197 215 221 228 246 252 242 245 123 259 191 250 307 47 314
3 1 360 357 355 353 351 351 350 345 344 337 332 325 315 298 283 277 269 208 193 197 219 213 177 229 134 214 177 205 196 217 202 214 221 213 231 233 239 152 213 233 254 280 84 234 263
2 1 358 356 354 353 350 348 348 345 342 337 331 324 311 291 276 272 257 236 353 345 218 231 262 217 297 144 175 201 188 206 213 217 220 236 226 254 197 180 228 241 252 288 209 310 40
360 357 357 356 354 351 349 347 344 344 341 338 332 328 311 281 234 211 226 235 300 338 263 183 213 226 202 212 203 198 190 210 203 224 219 242 237 214 17 237 229 235 242 258 306 100 65
357 356 355 354 353 350 348 345 342 341 343 336 328 318 300 211 226 208 232 251 274 294 281 161 194 212 193 200 220 199 190 208 228 223 237 224 264 180 234 255 223 241 291 304 272 273 161
355 353 353 353 352 351 347 344 341 341 341 337 323 296 257 229 323 203 302 208 215 252 272 143 174 182 176 201 174 187 181 218 232 220 241 227 225 256 228 230 243 253 322 292 272 290 87
350 352 352 351 350 349 346 344 341 340 340 341 335 282 203 202 233 261 301 110 248 233 240 172 146 179 172 213 181 170 181 223 236 265 227 269 268 206 227 235 257 297 288 279 256 250 292
348 350 350 349 348 348 346 344 341 340 340 340 337 259 198 313 1 197 234 205 218 246 136 151 167 177 184 194 199 158 184 199 219 218 234 219 247 219 263 260 248 230 251 264 283 291 280
348 349 348 348 348 347 345 344 342 340 339 339 335 192 225 262 310 275 219 215 248 226 204 143 166 176 193 183 177 175 191 202 221 239 224 210 199 217 209 232 257 239 245 254 179 356 252
346 346 348 348 347 345 344 344 342 339 338 339 317 197 254 241 223 262 217 220 236 290 136 151 172 182 213 170 150 179 197 215 209 228 251 278 281 181 197 210 224 244 238 264 270 191 201
345 346 347 346 346 346 345 345 343 339 336 337 251 215 212 203 175 219 226 248 274 307 340 160 178 198 197 183 171 193 188 206 204 215 255 94 203 170 163 214 258 282 322 293 294 10 73
344 344 345 346 346 344 345 346 345 341 335 334 240 237 131 157 173 220 228 234 236 263 276 291 209 187 222 177 209 206 179 161 213 176 263 286 249 248 180 207 238 203 236 244 280 168 172
345 344 345 346 347 346 345 347 347 346 339 314 283 269 147 163 199 226 236 245 285 299 203 264 295 282 223 177 215 201 186 164 131 297 205 231 268 190 246 212 218 237 299 316 352 327 21
347 344 346 348 347 345 345 347 345 348 1 319 267 218 172 198 228 220 227 252 15 244 238 225 254 262 229 325 195 201 95 108 129 230 18 346 249 258 244 167 314 285 240 253 266 288 166
346 346 347 349 349 345 344 345 342 341 344 293 275 187 157 213 255 288 278 238 231 242 296 253 264 263 288 159 260 181 136 127 107 59 6 335 289 300 313 110 301 297 306 266 306 302 339
346 345 347 348 347 345 345 347 345 340 339 262 242 73 300 189 221 240 270 302 225 171 227 226 259 277 241 246 158 245 168 124 167 133 257 261 276 290 296 178 137 276 289 282 309 313 313
345 345 346 347 348 347 347 350 350 347 337 227 347 348 331 302 339 280 237 272 290 226 188 203 248 227 279 64 42 345 332 180 204 168 202 253 274 281 279 287 219 235 273 289 280 310 314
345 346 346 348 347 346 348 353 355 358 349 339 7 338 295 293 279 210 253 215 250 32 333 20 327 237 66 118 35 57 312 348 309 301 286 294 294 295 284 288 287 274 313 289 303 202 43
345 346 346 348 347 346 348 352 355 357 3 320 307 322 282 280 310 314 340 346 348 38 212 171 112 353 236 291 174 239 260 280 261 283 282 263 258 265 271 286 270 79 58 39 36 49 56
343 345 346 346 347 347 347 351 352 351 352 331 296 345 318 300 308 12 302 302 298 351 277 330 88 22 285 284 282 256 240 233 254 255 285 272 245 253 252 248 230 123 53 51 45 61 32
339 342 343 342 343 345 347 349 349 348 353 336 304 348 311 300 40 347 332 342 300 234 217 228 116 328 306 279 264 252 266 271 243 162 193 277 183 264 259 272 274 94 78 37 10 130 49
335 334 337 338 339 342 345 347 347 347 347 336 288 2 304 298 355 357 353 336 334 331 305 174 148 238 234 260 258 257 256 237 259 230 169 226 271 234 232 252 87 87 78 327 243 76 31
334 334 333 333 335 337 340 342 343 343 345 346 301 325 339 311 300 326 333 324 329 325 306 30 285 232 271 237 257 258 253 249 232 267 334 193 225 237 249 255 152 26 236 16 57 33 18
333 332 333 332 332 334 336 335 337 337 338 337 293 343 341 273 295 311 287 283 295 319 322 332 314 307 12 306 245 278 273 212 281 260 146 224 360 358 24 80 103 83 66 69 49 35 13